Location: Black Swamp Observatory
(41.3920°N, 84.1250°W)
Time: 12:35:42
(UTC-04:00)

Vanguard 2 - Pass Details

Date: 01 February 2022
Orbit: 552 x 2935 km, 32.9° (Epoch: 24 May)

Event Time Altitude Azimuth Distance (km) Brightness Sun altitude
Rises 20:01:56 0° 249° (WSW) 3,408 12.0 -24.4°
Reaches altitude 10° 20:04:07 10° 242° (WSW) 2,682 11.1 -24.8°
Maximum altitude 20:10:21 47° 170° (S) 1,682 9.1 -26.0°
Enters shadow 20:13:01 38° 130° (SE) 2,121 9.3 -26.5°
